Regional Weather Roundup
Issued by NWS

Home | Current Version | Previous Version | Text Only | Print | Product List | Glossary On
Versions: 1 2 3 4 5 6 7 8 9 10 11 12 13 14 15 16 17 18 19 20 21 22 23 24 25 26 27 28 29 30 31 32 33 34 35 36 37 38 39 40 41 42 43 44 45 46 47 48 49 50
347
ASUS44 KLIX 231005
RWRLA
LOUISIANA WEATHER ROUNDUP
NATIONAL WEATHER SERVICE NEW ORLEANS LA
500 AM CDT THU OCT 23 2014

NOTE: "FAIR" INDICATES FEW OR NO CLOUDS BELOW 12,000 FEET WITH NO
      SIGNIFICANT WEATHER AND/OR OBSTRUCTIONS TO VISIBILITY.
      SKY/WX - SKY CONDITION AND SIGNIFICANT WEATHER.
      TMP - AIR TEMPERATURE.    DP   - DEWPOINT TEMPERATURE.
      RH  - RELATIVE HUMIDITY.  PRES - PRESSURE.
      HX  - HEAT INDEX.         WCI  - WIND CHILL INDEX.

*  THESE STATIONS ARE NOT NWS OR FAA STATIONS AND ARE NOT UNDER
   NWS QUALITY CONTROL.

LAZ040-048-061>063-065-066-069-231100-
SOUTHEAST LOUISIANA

CITY           SKY/WX    TMP DP  RH WIND       PRES   REMARKS
N.O. AUDUBON     N/A     61  49  64 MISG        N/A
N.O. INTL ARPT CLEAR     63  49  60 E9        30.05S
N.O. LAKEFRONT LGT RAIN  63  50  62 NE18      30.06S
N.O. DOWNTOWN* FAIR      61  45  55 NE6       30.06S
SLIDELL        CLEAR     48  45  89 N3        30.06F
BATON ROUGE    CLEAR     50  47  89 NE5       30.08S
BOOTHVILLE     CLEAR     70  56  61 NE10      30.03S
BELLE CHASSE   CLEAR     59  50  72 NE6       30.05F
BOGALUSA*        N/A     47  44  90 CALM      30.09F
NEW ROADS*     FAIR      53  47  81 CALM      30.09R
GONZALES*      FAIR      53  51  93 N3        30.07S
HAMMOND*       CLEAR     52  45  76 CALM      30.09S
HOUMA*         CLEAR     56  50  81 N7        30.05S
PORT FOURCHON* SUNNY     68  59  73 NE9       30.06S

$$

LAZ041-044-053-054-231100-
SOUTHWEST LOUISIANA

CITY           SKY/WX    TMP DP  RH WIND       PRES   REMARKS
LAKE CHARLES   PTCLDY    56  51  84 NE6       30.08R
LAFAYETTE      CLEAR     54  51  90 NE3       30.08R
PATTERSON      CLEAR     55  54  94 NE5       30.08S
SALT POINT       N/A     59  55  87 NE3       30.04F
NEW IBERIA     CLEAR     56  51  84 NE6       30.08R
CHENAULT AIRPK NOT AVBL

$$

LAZ027-028-231100-
CENTRAL LOUISIANA

CITY           SKY/WX    TMP DP  RH WIND       PRES   REMARKS
FORT POLK      PTCLDY    54  49  82 NE7       30.10S
ALEXANDRIA INT CLEAR     51  48  89 CALM      30.11R
ALEXANDRIA     CLEAR     48  46  93 N3        30.11S

$$

LAZ001-002-231100-
NORTHWEST LOUISIANA

CITY           SKY/WX    TMP DP  RH WIND       PRES   REMARKS
SHREVEPORT     CLOUDY    57  49  74 E6        30.11F
BARKSDALE AFB  CLOUDY    56  47  73 CALM      30.12F
DTN SHREVEPORT CLOUDY    55  47  74 E6        30.12F

$$

LAZ014-016-231100-
NORTHEAST LOUISIANA

CITY           SKY/WX    TMP DP  RH WIND       PRES   REMARKS
MONROE         PTCLDY    49  46  90 N3        30.15S
TALLULAH       CLEAR     44  43  96 N3        30.14R

$$




USA.gov is the U.S. government's official web portal to all federal, state and local government web resources and services.